This demonstration page uses our WeatherBlox Daily Observations layout. Learn more.

Left ArrowRight Arrow

39.08367, -84.50855

Hourly Observations for November 23, 2018

Temp ( °F °C ) Dew Point ( °F °C ) Humidity (%) Winds ( mph kmh ) Pressure ( in mb ) Visibility ( mi km ) Precip ( " mm )
12:50 am 00:50 Clear with Mist and Fog 28 -2 28 -2 100 100 ENE 3 6 30.36 1028 3 4 0.00 0.00
12:53 am 00:53 Clear with Mist and Fog 29 -1.7 29 -1.7 100 100 ENE 3 6 30.35 1028 3 4 0.00 0.00
1:04 am 01:04 Clear with Mist and Fog 29 -1.7 29 -1.7 100 100 ENE 3 6 30.36 1028 3 5 0.00 0.00
1:37 am 01:37 Clear with Mist and Fog 29 -1.7 29 -1.7 100 100 Calm 30.36 1028 2 3 0.00 0.00
1:49 am 01:49 Clear with Mist and Fog 28 -2 28 -2 100 100 Calm 30.36 1028 3 4 0.00 0.00
1:53 am 01:53 Clear with Mist and Fog 28 -2.2 28 -2.2 100 100 Calm 30.34 1027 2 3 0.00 0.00
2:18 am 02:18 Clear with Mist and Fog 28 -2.2 28 -2.2 100 100 Calm 30.36 1028 3 4 0.00 0.00
2:37 am 02:37 Clear with Mist and Fog 27 -2.8 27 -2.8 100 100 ENE 3 6 30.36 1028 3 5 0.00 0.00
2:53 am 02:53 Clear with Mist and Fog 28 -2.2 28 -2.2 100 100 NE 3 6 30.32 1027 4 6 0.00 0.00
3:42 am 03:42 Clear with Mist and Fog 27 -2.8 27 -2.8 100 100 Calm 30.33 1027 2 3 0.00 0.00
3:53 am 03:53 Clear with Mist and Fog 27 -2.8 26 -3.3 96 96 NE 3 6 30.31 1026 3 4 0.00 0.00
4:02 am 04:02 Clear with Mist and Fog 27 -2.8 26 -3.3 96 96 Calm 30.33 1027 3 5 0.00 0.00
4:53 am 04:53 Clear with Mist and Fog 26 -3.3 26 -3.3 100 100 NE 5 7 30.29 1026 4 6 0.00 0.00
5:49 am 05:49 Clear with Mist and Fog 27 -3 27 -3 100 100 Calm 30.30 1026 3 4 0.00 0.00
5:53 am 05:53 Clear with Mist and Fog 26 -3.3 26 -3.3 100 100 Calm 30.28 1025 3 5 0.00 0.00
6:18 am 06:18 Clear with Mist and Fog 27 -2.8 26 -3.3 96 96 Calm 30.30 1026 3 4 0.00 0.00
6:28 am 06:28 Clear with Mist and Fog 27 -2.8 26 -3.3 96 96 Calm 30.30 1026 3 5 0.00 0.00
6:45 am 06:45 Clear with Mist and Fog 27 -2.8 26 -3.3 96 96 Calm 30.30 1026 2 3 0.00 0.00
6:53 am 06:53 Clear 27 -2.8 26 -3.3 96 96 Calm 30.27 1025 10 16 0.00 0.00
7:53 am 07:53 Sunny 27 -2.8 26 -3.3 96 96 Calm 30.26 1025 10 16 0.00 0.00
8:53 am 08:53 Sunny 31 -0.6 30 -1.1 96 96 Calm 30.27 1025 10 16 0.00 0.00
9:53 am 09:53 Sunny 38 3.3 33 0.6 83 83 Calm 30.26 1025 10 16 0.00 0.00
10:53 am 10:53 Sunny 45 7.2 35 1.7 68 68 VRB 5 7 30.24 1024 10 16 0.00 0.00
11:53 am 11:53 Sunny 48 8.9 37 2.8 66 66 S 6 9 30.20 1023 10 16 0.00 0.03
12:53 pm 12:53 Sunny 50 10 37 2.8 61 61 SE 3 6 30.16 1022 10 16 0.00 0.00
1:53 pm 13:53 Sunny 52 11.1 38 3.3 59 59 SSE 5 7 30.14 1021 10 16 0.00 0.00
2:53 pm 14:53 Sunny 52 11.1 39 3.9 61 61 SE 7 11 30.10 1019 10 16 0.00 0.00
3:53 pm 15:53 Sunny 52 11.1 39 3.9 61 61 SSE 5 7 30.07 1018 10 16 0.00 0.00
4:53 pm 16:53 Sunny 51 10.6 39 3.9 64 64 SSE 6 9 30.06 1018 10 16 0.00 0.00
5:53 pm 17:53 Clear 50 10 39 3.9 66 66 VRB 3 6 30.04 1017 10 16 0.00 0.00
6:53 pm 18:53 Mostly Clear 51 10.6 39 3.9 64 64 ESE 3 6 30.00 1016 10 16 0.00 0.00
7:53 pm 19:53 Clear 51 10.6 39 3.9 64 64 VRB 5 7 29.96 1015 10 16 0.00 0.00
8:53 pm 20:53 Clear 52 11.1 38 3.3 59 59 VRB 6 9 29.92 1013 10 16 0.00 0.00
9:53 pm 21:53 Cloudy with Light Rain 52 11.1 38 3.3 59 59 SSE 5 7 29.89 1012 10 16 0.00 0.03
10:53 pm 22:53 Cloudy with Light Rain 51 10.6 39 3.9 64 64 S 7 11 29.86 1011 10 16 0.00 0.03
11:53 pm 23:53 Cloudy with Rain 46 7.8 44 6.7 93 93 S 3 6 29.86 1011 5 8 0.10 2.54

Powered by AerisWeather